Lac La Marte, Northwest Territories

7:01 AM MST on February 22, 2017 (GMT -0700)
Lac la Martre

Weather History for CWMT - September, 2012

Change the Weather History Date:

Tuesday, September 11, 2012

  Actual Average Record
Temperature  
Mean Temperature 44 °F -  
Max Temperature 49 °F - - ()
Min Temperature 40 °F - - ()
Degree Days  
Heating Degree Days 20    
Moisture  
Dew Point 44 °F    
Average Humidity 95    
Maximum Humidity 97    
Minimum Humidity 92    
Precipitation  
Precipitation 0.00 in - - ()
Sea Level Pressure  
Sea Level Pressure 29.53 in    
Wind  
Wind Speed 13 mph ()    
Max Wind Speed 18 mph    
Max Gust Speed 28 mph    
T = Trace of Precipitation, MM = Missing Value Source: Averaged Metar Reports

Daily Weather History Graph

Daily Weather History Graph

Search for Another Location

Airport or City:

Trip Planner

Search our weather history database for the weather conditions in past years. The results will help you decide how hot, cold, wet, or windy it might be!

Date:

Astronomy

Sep. 11, 2012 Rise Set
Actual Time 7:04 AM MDT 8:25 PM MDT
Civil Twilight 6:16 AM MDT 9:12 PM MDT
Nautical Twilight 5:15 AM MDT 10:13 PM MDT
Astronomical Twilight 3:58 AM MDT 11:27 PM MDT
Moon 1:07 AM MDT (9/11) 6:42 PM MDT (9/11)
Length of Visible Light 14h 56m
Length of Day
13h 21m
Waning Crescent, 21% of the Moon is Illuminated
Sep 11
Waning Crescent
Sep 15
New
Sep 22
First Quarter
Sep 29
Full
Oct 8
Last Quarter

Hourly Weather History & Observations

Time (MDT) Temp. Windchill Dew Point Humidity Pressure Visibility Wind Dir Wind Speed Gust Speed Precip Events Conditions
12:00 AM 49 °F - 48 °F 93% 29.44 in - West 10.4 mph - -  
12:00 AM 48.6 °F - 47.7 °F 97% 29.44 in - West 10.4 mph 17.3 mph N/A   Unknown
1:00 AM 48.2 °F - 46.9 °F 95% 29.44 in - West 13.8 mph 19.6 mph N/A   Unknown
2:00 AM 47.8 °F - 46.6 °F 95% 29.45 in - West 15.0 mph - N/A   Unknown
3:00 AM 47.3 °F - 46.2 °F 96% 29.46 in - West 13.8 mph 20.7 mph N/A   Unknown
4:00 AM 47.1 °F - 46.2 °F 97% 29.46 in - West 13.8 mph 19.6 mph N/A   Unknown
5:00 AM 46.8 °F - 45.7 °F 96% 29.47 in - WNW 15.0 mph 20.7 mph N/A   Unknown
6:00 AM 47 °F - 46 °F 92% 29.48 in - WNW 15.0 mph - -  
6:00 AM 46.8 °F - 45.5 °F 95% 29.48 in - WNW 15.0 mph 21.9 mph N/A   Unknown
7:00 AM 45.7 °F 38.8 °F 44.6 °F 96% 29.49 in - West 16.1 mph 23.0 mph N/A   Unknown
8:00 AM 46.9 °F - 46.0 °F 97% 29.49 in - WNW 15.0 mph 20.7 mph N/A   Unknown
9:00 AM 46.6 °F - 45.5 °F 96% 29.49 in - WNW 15.0 mph 23.0 mph N/A   Unknown
10:00 AM 45.7 °F 38.6 °F 44.4 °F 95% 29.50 in - WNW 17.3 mph 23.0 mph N/A   Unknown
11:00 AM 45.9 °F 39.1 °F 44.8 °F 96% 29.51 in - West 16.1 mph 23.0 mph N/A   Unknown
12:00 PM 45 °F - 43 °F 92% 29.53 in - West 16.1 mph - -  
12:00 PM 44.6 °F 37.4 °F 43.3 °F 95% 29.53 in - West 16.1 mph 23.0 mph N/A   Unknown
1:00 PM 44.8 °F 37.7 °F 43.5 °F 95% 29.54 in - WNW 16.1 mph 24.2 mph N/A   Unknown
2:00 PM 44.4 °F 37.2 °F 43.0 °F 95% 29.56 in - West 16.1 mph 24.2 mph N/A   Unknown
3:00 PM 44.4 °F 36.9 °F 43.0 °F 95% 29.58 in - West 17.3 mph 23.0 mph N/A   Unknown
5:00 PM 43.7 °F 36.0 °F 42.4 °F 95% 29.61 in - West 17.3 mph 25.3 mph N/A   Unknown
6:00 PM 43 °F - 41 °F 92% 29.63 in - West 17.3 mph - -  
6:00 PM 42.6 °F 34.6 °F 41.4 °F 95% 29.63 in - West 17.3 mph 25.3 mph N/A   Unknown
7:00 PM 42.3 °F 33.8 °F 40.6 °F 94% 29.64 in - West 18.4 mph 27.6 mph N/A   Unknown
8:00 PM 41.4 °F 33.0 °F 40.1 °F 95% 29.64 in - West 17.3 mph 24.2 mph N/A   Unknown
9:00 PM 40.8 °F 32.6 °F 39.9 °F 97% 29.65 in - WSW 16.1 mph 23.0 mph N/A   Unknown
11:00 PM 40.5 °F 32.5 °F 39.6 °F 97% 29.65 in - WSW 15.0 mph 21.9 mph N/A   Unknown